Weather History for KHBG - October, 2014

Change the Weather History Date:

Friday, October 24, 2014

  Actual Average Record
Temperature  
Mean Temperature 61 °F 64 °F  
Max Temperature 76 °F 77 °F 88 °F (2001)
Min Temperature 45 °F 51 °F 34 °F (1996)
Degree Days  
Heating Degree Days 4 4  
Month to date heating degree days 31 44  
Since 1 July heating degree days 31 46  
Cooling Degree Days 0 3  
Month to date cooling degree days 140 116  
Year to date cooling degree days 2444 2343  
Growing Degree Days 10 (Base 50)    
Moisture  
Dew Point 48 °F    
Average Humidity 67    
Maximum Humidity 100    
Minimum Humidity 33    
Precipitation  
Precipitation 0.00 in 0.13 in 2.24 in (1951)
Month to date precipitation 1.50 2.97  
Year to date precipitation 44.43 49.21  
Sea Level Pressure  
Sea Level Pressure 30.09 in    
Wind  
Wind Speed 3 mph (NNW)    
Max Wind Speed 13 mph    
Max Gust Speed 17 mph    
Visibility 10 miles    
Events      
T = Trace of Precipitation, MM = Missing Value Source: NWS Daily Summary

Daily Weather History Graph

Daily Weather History Graph

Search for Another Location

Airport or City:

Trip Planner

Search our weather history database for the weather conditions in past years. The results will help you decide how hot, cold, wet, or windy it might be!

Date:

Astronomy

Oct. 24, 2014 Rise Set
Actual Time 7:06 AM CDT 6:15 PM CDT
Civil Twilight 6:41 AM CDT 6:40 PM CDT
Nautical Twilight 6:13 AM CDT 7:08 PM CDT
Astronomical Twilight 5:45 AM CDT 7:36 PM CDT
Moon 7:43 AM CDT (10/24) 6:58 PM CDT (10/24)
Length of Visible Light 11h 58m
Length of Day
11h 09m
New Moon, 1% of the Moon is Illuminated
Oct 24
New Moon
Oct 30
First Quarter
Nov 6
Full
Nov 14
Last Quarter
Nov 22
New

Hourly Weather History & Observations

Time (CDT) Temp. Dew Point Humidity Pressure Visibility Wind Dir Wind Speed Gust Speed Precip Events Conditions
12:53 AM 54.0 °F 48.9 °F 83% 30.09 in 10.0 mi Calm Calm - N/A   Clear
1:53 AM 52.0 °F 48.9 °F 89% 30.09 in 10.0 mi WNW 3.5 mph - N/A   Clear
2:53 AM 48.9 °F 48.0 °F 97% 30.09 in 10.0 mi Calm Calm - N/A   Clear
3:53 AM 48.0 °F 46.0 °F 93% 30.09 in 10.0 mi Calm Calm - N/A   Clear
4:53 AM 48.0 °F 46.0 °F 93% 30.10 in 10.0 mi Calm Calm - N/A   Clear
5:53 AM 46.9 °F 46.0 °F 97% 30.10 in 10.0 mi Calm Calm - N/A   Clear
6:53 AM 45.0 °F 44.1 °F 97% 30.11 in 10.0 mi Calm Calm - N/A   Clear
7:53 AM 46.9 °F 46.0 °F 97% 30.12 in 10.0 mi Calm Calm - N/A   Clear
8:53 AM 55.0 °F 50.0 °F 83% 30.14 in 9.0 mi WNW 5.8 mph - N/A   Clear
9:53 AM 61.0 °F 50.0 °F 67% 30.14 in 10.0 mi North 6.9 mph - N/A   Clear
10:53 AM 66.0 °F 51.1 °F 59% 30.13 in 10.0 mi NNW 4.6 mph - N/A   Clear
11:53 AM 70.0 °F 48.9 °F 47% 30.11 in 10.0 mi NNE 5.8 mph - N/A   Clear
12:53 PM 72.0 °F 48.9 °F 44% 30.09 in 10.0 mi North - - N/A   Clear
1:53 PM 73.9 °F 46.0 °F 37% 30.06 in 10.0 mi NNW 10.4 mph - N/A   Clear
2:53 PM 75.0 °F 46.0 °F 36% 30.05 in 10.0 mi NNW 6.9 mph - N/A   Clear
3:53 PM 75.9 °F 46.0 °F 35% 30.05 in 10.0 mi North 6.9 mph - N/A   Clear
4:53 PM 75.0 °F 45.0 °F 34% 30.05 in 10.0 mi NNW 9.2 mph - N/A   Clear
5:53 PM 72.0 °F 46.0 °F 40% 30.06 in 10.0 mi NNW 5.8 mph - N/A   Clear
6:53 PM 60.1 °F 51.1 °F 72% 30.07 in 10.0 mi WNW 3.5 mph - N/A   Clear
7:53 PM 55.9 °F 51.1 °F 84% 30.09 in 10.0 mi Calm Calm - N/A   Clear
8:53 PM 55.0 °F 51.1 °F 86% 30.10 in 10.0 mi Calm Calm - N/A   Clear
9:53 PM 52.0 °F 48.9 °F 89% 30.11 in 10.0 mi Calm Calm - N/A   Clear
10:53 PM 51.1 °F 48.9 °F 92% 30.11 in 10.0 mi Calm Calm - N/A   Clear
11:53 PM 50.0 °F 48.0 °F 93% 30.11 in 10.0 mi Calm Calm - N/A   Clear